User: anonymous   Login
Location: Morlupo
(42.1333°N, 12.5000°E)
Time: 10:27:08
(UTC+00:00)
Language:

Cosmos 1603 - Orbit

View from above orbital plane
View from above orbital plane
View from above satellite
View from above satellite

Ground track
Ground track

The orbit data is extracted from the following two-line orbital elements,

1 15333U 84106A   21209.33145339  .00000328  00000-0  19669-3 0  9996
2 15333  71.0252 186.7432 0017723  79.1788 281.1328 14.14120398900372
Epoch (UTC): 28 July 2021 07:57:17
Eccentricity: 0.0017723
inclination: 71.0252°
perigee height: 832 km
apogee height: 858 km
right ascension of ascending node: 186.7432°
argument of perigee: 79.1788°
revolutions per day: 14.14120398
mean anomaly at epoch: 281.1328°
orbit number at epoch: 90037

The dashed part of the orbit path shows where the satellite is in the earth's shadow,  

DLR